Вернуться в каталог

NOAA 16 DEB

АктивенPO
NORAD 41366·DEBRIS·🇺🇸 United States

Запущен Sep 21, 2000 с Vandenberg Space Force Base

Loading…

Ближайшие Пролёты (ближайшие 24 часа)

TLE

СвежийSource: Space-Track

Эпоха: Sep 14, 2026, 13:31 UTC

1 41366U 00055JK  26257.56377314  .00007364  00000-0  22025-2 0  9991
2 41366  98.9391  19.5834 0022173 338.2094  21.8150 14.43051281546781

Отслеживайте NOAA 16 DEB в реальном времени с AllMySat

Download on the App Store